IRIDIUM 177

Last updated on Tue Sep 22 2026 00:03:21 GMT+0000 (Coordinated Universal Time)

1 56727U 23068T 26264.36408802 .00000260 00000+0 33100-4 0 9995 2 56727 86.1917 283.1679 0002561 90.1608 269.9905 14.77166478180588
UTC large
Height (km)
Speed (km/s)
/
Latitude / Longitude
Inclination (degrees)
Orbital Period (minutes)
Azimuth
Elevation
Range (km)
Doppler Factor

Next 0 passes for location: London (51.5072 / 0.1276)

No passes found over London.
IRIDIUM 177